    Orbital elements:
    2019 BQ4                                                 Earth MOID = 0.0966 AU
    Epoch 2019 Apr. 27.0 TT = JDT 2458600.5                 MPC
    M  10.41118              (2000.0)            P               Q
    n   0.25082023     Peri.  117.07688     -0.14398713     +0.78992190
    a   2.4901624      Node   129.62818     -0.92572781     -0.32038125
    e   0.8425691      Incl.   50.70605     +0.34970807     -0.52285681
    P   3.93           H   20.7           G   0.15           U   8
    Residuals in seconds of arc
    190128 703  0.2-  0.6+    190129 203  0.5-  0.1-    190129 I52  0.1-  0.0
    190128 703  0.6-  0.5+    190129 Z99  0.6+  0.0     190129 H01  0.0   0.3+
    190128 703  0.8-  0.6+    190129 Z99  0.2+  0.1+    190129 H01  0.0   0.3+
    190128 703  1.1-  0.3+    190129 K33  0.1+  0.6+    190129 H36  0.3+  0.6+
    190128 I52  0.5-  0.4+    190129 K38  0.2-  0.4+    190129 H36  0.2+  0.3+
    190128 I52  0.2-  0.3+    190129 K33  0.9-  0.8+    190129 H36  0.1+  0.6+
    190128 I52  0.3-  0.6+    190129 K38  0.2-  0.0     190129 H36  0.0   0.3+
    190128 I52  0.4-  0.4+    190129 K38  0.2-  0.4+    190129 P93  0.7+  0.6+
    190128 I52  0.6-  0.7+    190129 K38  0.2-  0.2+    190129 P93  0.7+  0.2+
    190128 I41 (4.9+  4.6-)   190129 K38  0.3-  0.0     190129 P93  0.4+  0.2+
    190128 I41 (4.2+  4.2-)   190129 204  0.3-  0.2+    190129 P93  0.5+  0.5+
    190128 I41  2.2+  1.3-    190129 204  0.4-  0.2+    190129 K61  1.1+  0.0
    190128 I41  1.7+  1.5-    190129 204  0.1-  0.4+    190129 K61  1.3+  0.0
    190128 I52  0.7-  0.4+    190129 204  0.3-  0.3+    190129 K61  1.1+  0.2+
    190128 I52  0.7-  0.4+    190129 204  0.2-  0.3+    190130 J95  0.6-  0.0
    190128 I52  0.6-  0.4+    190129 L01  0.6-  0.7+    190130 J95  0.3-  0.2+
    190128 587  0.1-  1.0-    190129 L01  0.5-  0.2+    190130 J95  0.8-  0.0
    190128 587  0.0   0.5-    190129 L01  0.7-  0.2+    190131 Z99  0.7+  0.4-
    190128 587  0.8-  1.1-    190129 L01  0.8-  0.4+    190131 Z99  0.8+  0.1+
    190128 587  0.7-  0.5-    190129 H01  0.1-  0.1+    190131 Z99  0.5+  0.5-
    190128 K33  0.4+  0.8+    190129 H01  0.0   0.2+    190131 J95  0.1+  0.2-
    190128 203  0.4-  0.2+    190129 I52  0.2-  0.0     190131 J95  0.0   0.0
    190129 203  0.5-  0.3+    190129 I52  0.2-  0.0     190131 J95  0.1+  0.2-
    190129 Z99  0.3+  0.9+    190129 I52  0.0   0.1+    190131 J95  0.0   0.0
    
    Ephemeris:
    2019 BQ4                 a,e,i = 2.49, 0.84, 51                  q = 0.3920
    Date    TT    R. A. (2000) Decl.     Delta      r     Elong.  Phase     V
    2019 01 01    10 15 57.0 -06 43 21   0.7025  1.4680   120.2    35.4    22.2
    ...
    2019 01 16    10 44 54.8 -01 16 02   0.3648  1.2556   131.6    35.9    20.5
    ...
    2019 01 24    11 27 30.4 +10 40 39   0.2016  1.1352   134.7    38.0    19.0
    ...
    2019 01 30    13 31 22.1 +38 15 50   0.1173  1.0414   115.8    58.4    18.2
    2019 01 31    14 19 19.5 +44 09 51   0.1127  1.0254   107.9    66.1    18.3
    2019 02 01    15 19 02.4 +48 43 04   0.1124  1.0094    99.2    74.4    18.6
    ...
    2019 02 07    19 52 19.8 +41 34 34   0.1795  0.9117    60.6   109.5    20.9
    ...
    2019 02 15    21 06 49.9 +28 44 38   0.3350  0.7774    43.1   119.8    22.6
    ...
    2019 03 02    21 42 45.9 +17 19 10   0.6700  0.5275    29.8   111.1    22.7
    
    A. U. Tomatic                (C) Copyright 2019 MPC           M.P.E.C. 2019-B154
    

    Read MPEC 2019-B153 Read MPEC 2019-B155


    MPEC number:

    Enter an MPEC number in one of the following forms:

    • 1997-B01 (the full form)
    • J97B01 (the packed version of the full form)
    • B01 (the abbreviated form)